Location: Deuil
(48.9767°N, 2.3272°E)
Time: 11:45:30
(UTC+00:00)

Cosmos 2228 - Pass Details

Date: 01 June 2022
Orbit: 586 x 617 km, 82.5° (Epoch: 01 July)

Event Time Altitude Azimuth Distance (km) Brightness Sun altitude
Rises 03:08:07 0° 331° (NNW) 2,882 6.7 -6.2°
Reaches altitude 10° 03:11:41 10° 301° (WNW) 1,962 5.5 -5.8°
Maximum altitude 03:13:18 12° 279° (W) 1,831 5.1 -5.6°
Drops below altitude 10° 03:14:54 10° 257° (WSW) 1,949 5.1 -5.4°
Enters shadow 03:16:31 - 239° (WSW) 2,280 5.3 -5.2°
